This demonstration page uses our WeatherBlox Daily Observations layout. Learn more.

Left ArrowRight Arrow

39.08367, -84.50855

Hourly Observations for August 12, 2017

Temp ( °F °C ) Dew Point ( °F °C ) Humidity (%) Winds ( mph kmh ) Pressure ( in mb ) Visibility ( mi km ) Precip ( " mm )
12:53 am 00:53 Partly Cloudy with Mist and Fog 68 20 68 20 100 100 N N/A 29.95 1014 6 9.65604 N/A
1:53 am 01:53 Cloudy with Mist and Fog 68 20 68 20 100 100 N N/A 29.95 1014 5 8.0467 N/A
2:53 am 02:53 Mostly Cloudy with Mist and Fog 68 20 68 20 100 100 N N/A 29.94 1014 5 8.0467 N/A
3:05 am 03:05 Cloudy with Mist and Fog 68 20 68 20 100 100 N N/A 29.94 1014 5 8.0467 N/A
3:43 am 03:43 Mostly Cloudy 72 22.2 68 20 87 87 NW 3 6 29.94 1014 10 16.0934 N/A
3:53 am 03:53 Partly Cloudy 69 20.6 68 20 96 96 N N/A 29.94 1014 8 12.87472 N/A
4:53 am 04:53 Clear 68 20 67 19.4 96 96 N N/A 29.94 1014 7 11.26538 N/A
5:53 am 05:53 Mostly Cloudy 70 21.1 67 19.4 90 90 N N/A 29.95 1014 10 16.0934 N/A
6:53 am 06:53 Sunny 68 20 66 18.9 93 93 N N/A 29.96 1014 9 14.48406 N/A
7:53 am 07:53 Sunny 69 20.6 65 18.3 87 87 N 5 7 29.99 1016 10 16.0934 N/A
8:53 am 08:53 Mostly Sunny 71 21.7 64 17.8 79 79 NNE 5 7 29.98 1015 10 16.0934 N/A
9:53 am 09:53 Sunny 74 23.3 64 17.8 71 71 N 5 7 29.99 1016 10 16.0934 N/A
10:53 am 10:53 Sunny 76 24.4 64 17.8 67 67 NNW 7 11 29.99 1016 10 16.0934 N/A
11:53 am 11:53 Sunny 79 26.1 62 16.7 56 56 N 7 11 30 1016 10 16.0934 N/A
12:53 pm 12:53 Sunny 80 26.7 60 15.6 51 51 NW 8 13 29.99 1016 10 16.0934 N/A
1:53 pm 13:53 Mostly Sunny 81 27.2 60 15.6 49 49 VRB 7 11 29.99 1016 10 16.0934 N/A
2:53 pm 14:53 Mostly Sunny 82 27.8 59 15 46 46 N 8 13 29.99 1016 10 16.0934 N/A
3:53 pm 15:53 Sunny 82 27.8 58 14.4 44 44 WNW 7 11 29.97 1015 10 16.0934 N/A
4:53 pm 16:53 Mostly Sunny 83 28.3 59 15 44 44 NNE 8 13 29.96 1015 10 16.0934 N/A
5:53 pm 17:53 Sunny 82 27.8 58 14.4 44 44 N 14 22 29.96 1015 10 16.0934 N/A
6:53 pm 18:53 Mostly Sunny 80 26.7 56 13.3 44 44 NNW 7 11 29.97 1015 10 16.0934 N/A
7:53 pm 19:53 Mostly Sunny 78 25.6 57 13.9 48 48 WNW 5 7 29.97 1015 10 16.0934 N/A
8:53 pm 20:53 Mostly Clear 73 22.8 57 13.9 57 57 NNW 5 7 29.97 1015 10 16.0934 N/A
9:53 pm 21:53 Clear 67 19.4 61 16.1 81 81 N N/A 29.99 1016 10 16.0934 N/A
10:53 pm 22:53 Mostly Clear 65 18.3 61 16.1 87 87 N N/A 30.01 1016 10 16.0934 N/A
11:53 pm 23:53 Clear 63 17.2 61 16.1 93 93 N N/A 30.01 1016 10 16.0934 N/A

Powered by AerisWeather